{"data":{"norad_id":66378,"epoch":"2026-05-24T22:31:08.793408Z","epoch_age_seconds":77567,"freshness":"FRESH","line1":"1 66378U 25255C   26144.93829622  .00011010  00000+0  26965-3 0  9990","line2":"2 66378  52.9919 124.6157 0014721  96.5614 263.7066 15.41207531 30371","mean_motion":15.41207531,"eccentricity":0.0014721,"inclination_deg":52.9919,"raan_deg":124.6157,"arg_perigee_deg":96.5614,"mean_anomaly_deg":263.7066,"bstar":0.00026965,"rev_number":3037,"period_min":93.433231478286,"perigee_km":432.50361108784,"apogee_km":452.58506107753,"semimajor_km":6820.6813360827,"source":"CELESTRAK","updated_at":"2026-05-25T13:38:06.174885Z"}}